Station BGNN4 - 8519483 - BERGEN POINT WEST REACH- NY

Sailing guide
Sailing guide
english français italiano spagnolo
english français italiano español
Sea - Seek
Station BGNN4 - 8519483 - BERGEN POINT WEST REACH- NY
Station BGNN4 - 8519483 - BERGEN POINT WEST REACH- NY

Weather report - Station BGNN4 - 8519483 - BERGEN POINT WEST REACH- NY

Time Wind speed knots Wind direction Pressure ----
April 17, 2014 1:48 am EDT 6 30 1036 Air Temperature:4.3
April 17, 2014 12:48 am EDT 10 20 1036 Air Temperature:4.8
April 16, 2014 11:48 pm EDT 9 20 1035 Air Temperature:5.3
April 16, 2014 10:48 pm EDT 4 70 1035 Air Temperature:5.9
April 16, 2014 9:48 pm EDT 9 20 1034 Air Temperature:6.9
April 16, 2014 8:48 pm EDT 10 10 1033 Air Temperature:7.4
April 16, 2014 7:48 pm EDT 9 350 1031 Air Temperature:7.6
April 16, 2014 6:48 pm EDT 13 350 1031 Air Temperature:7.7
April 16, 2014 5:48 pm EDT 11 10 1031 Air Temperature:7.6
April 16, 2014 4:48 pm EDT 13 10 1030 Air Temperature:7.2
April 16, 2014 3:48 pm EDT 12 10 1030 Air Temperature:6.7
April 16, 2014 2:48 pm EDT 14 350 1030 Air Temperature:6.2
April 16, 2014 1:48 pm EDT 15 340 1030 Air Temperature:4.9
April 16, 2014 12:48 pm EDT 12 320 1030 Air Temperature:4.8
April 16, 2014 11:48 am EDT 14 330 1029 Air Temperature:3.4
April 16, 2014 10:48 am EDT 20 350 1028 Air Temperature:2.1
April 16, 2014 9:48 am EDT 15 350 1027 Air Temperature:1.1
April 16, 2014 8:48 am EDT 17 330 1026 Air Temperature:0.7
April 16, 2014 7:48 am EDT 18 340 1024 Air Temperature:0.1
April 16, 2014 6:48 am EDT 19 350 1024 Air Temperature:0.4
April 16, 2014 5:48 am EDT 25 330 1021 Air Temperature:0.7
April 16, 2014 4:48 am EDT 19 330 1019 Air Temperature:1.5
April 16, 2014 3:48 am EDT 19 320 1018 Air Temperature:2.1
April 16, 2014 2:48 am EDT 17 320 1015 Air Temperature:2.6
April 16, 2014 1:48 am EDT 13 330 1015 Air Temperature:2.9
April 16, 2014 12:48 am EDT 14 330 1014 Air Temperature:1.4
April 15, 2014 11:48 pm EDT 15 340 1013 Air Temperature:2.2
April 15, 2014 10:48 pm EDT 15 330 1012 Air Temperature:3.1